When you browse on this site, cookies collect data to enhance your experience and personalize the content and advertising you see.
Visit our Privacy Policy to learn more. By continuing to use the site, you agree to this use of cookies and data.

Hourly Weather Sannois

Today, 3 July, Friday

Time Temperature Precipitation Wind Pressure Humidity
00:00 +14°C° 0 mm 2 mps 757 mmHg 83%
01:00 +14°C° 0 mm 2 mps 757 mmHg 84%
02:00 +14°C° 0 mm 2 mps 757 mmHg 85%
03:00 +13°C° 0 mm 2 mps 757 mmHg 87%
04:00 +14°C° 0 mm 2 mps 758 mmHg 85%
05:00 +13°C° 0 mm 3 mps 758 mmHg 83%
06:00 +15°C° 0 mm 2 mps 758 mmHg 82%
07:00 +16°C° 0 mm 3 mps 759 mmHg 75%
08:00 +18°C° 0 mm 3 mps 759 mmHg 68%
09:00 +19°C° 0 mm 3 mps 759 mmHg 61%
10:00 +20°C° 0 mm 3 mps 759 mmHg 58%
11:00 +21°C° 0 mm 4 mps 759 mmHg 54%
12:00 +22°C° 0 mm 4 mps 759 mmHg 51%
13:00 +22°C° 0 mm 4 mps 759 mmHg 52%
14:00 +22°C° 0 mm 4 mps 758 mmHg 52%
15:00 +22°C° 0 mm 4 mps 758 mmHg 52%
16:00 +22°C° 0 mm 4 mps 758 mmHg 54%
17:00 +21°C° 0 mm 3 mps 758 mmHg 56%
18:00 +21°C° 0 mm 3 mps 758 mmHg 58%
19:00 +20°C° 0 mm 2 mps 758 mmHg 62%
20:00 +19°C° 0 mm 2 mps 759 mmHg 65%
21:00 +18°C° 0 mm 2 mps 759 mmHg 68%
22:00 +18°C° 0 mm 2 mps 759 mmHg 72%
23:00 +17°C° 0 mm 3 mps 759 mmHg 75%

Tomorrow, 4 July, Saturday

Time Temperature Precipitation Wind Pressure Humidity
00:00 +16°C° 0 mm 3 mps 759 mmHg 79%
01:00 +16°C° 0 mm 3 mps 759 mmHg 79%
02:00 +16°C° 0 mm 3 mps 758 mmHg 80%
03:00 +14°C° 0 mm 4 mps 758 mmHg 80%
04:00 +15°C° 0 mm 4 mps 758 mmHg 78%
05:00 +15°C° 0 mm 4 mps 758 mmHg 76%
06:00 +15°C° 0 mm 4 mps 758 mmHg 74%
07:00 +15°C° 0 mm 4 mps 758 mmHg 74%
08:00 +16°C° 0 mm 5 mps 758 mmHg 74%
09:00 +16°C° 0 mm 5 mps 758 mmHg 75%
10:00 +19°C° 0 mm 5 mps 758 mmHg 72%
11:00 +20°C° 0 mm 5 mps 758 mmHg 68%
12:00 +22°C° 0 mm 6 mps 757 mmHg 65%
13:00 +22°C° 0 mm 6 mps 757 mmHg 66%
14:00 +22°C° 0 mm 5 mps 757 mmHg 68%
15:00 +22°C° 0 mm 5 mps 757 mmHg 69%
16:00 +22°C° 0 mm 5 mps 757 mmHg 72%
17:00 +21°C° 0 mm 5 mps 757 mmHg 75%
18:00 +20°C° 0 mm 5 mps 757 mmHg 78%
19:00 +20°C° 0 mm 5 mps 757 mmHg 80%
20:00 +20°C° 0 mm 5 mps 757 mmHg 82%
21:00 +19°C° 0 mm 5 mps 757 mmHg 84%
22:00 +19°C° 0 mm 5 mps 757 mmHg 84%
23:00 +19°C° 0 mm 5 mps 757 mmHg 85%

Day after tomorrow, 5 July, Sunday

Time Temperature Precipitation Wind Pressure Humidity
00:00 +19°C° 0 mm 5 mps 757 mmHg 86%
01:00 +19°C° 0 mm 4 mps 757 mmHg 86%
02:00 +19°C° 0 mm 4 mps 756 mmHg 86%
03:00 +19°C° 0 mm 4 mps 756 mmHg 85%
04:00 +20°C° 0 mm 4 mps 756 mmHg 84%
05:00 +20°C° 0 mm 4 mps 756 mmHg 83%
06:00 +20°C° 0 mm 5 mps 756 mmHg 82%
07:00 +20°C° 0 mm 5 mps 756 mmHg 79%
08:00 +21°C° 0 mm 5 mps 756 mmHg 76%
09:00 +21°C° 0 mm 5 mps 756 mmHg 73%
10:00 +22°C° 0 mm 6 mps 756 mmHg 71%
11:00 +23°C° 0 mm 6 mps 756 mmHg 68%
12:00 +24°C° 0 mm 6 mps 756 mmHg 65%
13:00 +23°C° 0 mm 6 mps 756 mmHg 66%
14:00 +23°C° 0 mm 6 mps 756 mmHg 68%
15:00 +23°C° 0 mm 6 mps 755 mmHg 69%
16:00 +22°C° 0.1 mm 6 mps 755 mmHg 71%
17:00 +21°C° 0.1 mm 5 mps 755 mmHg 74%
18:00 +21°C° 0.1 mm 5 mps 755 mmHg 77%
19:00 +20°C° 0.1 mm 5 mps 755 mmHg 78%
20:00 +19°C° 0.1 mm 4 mps 756 mmHg 79%
21:00 +18°C° 0.1 mm 4 mps 756 mmHg 80%
22:00 +17°C° 0 mm 4 mps 756 mmHg 79%
23:00 +14°C° 0 mm 4 mps 756 mmHg 78%

6 July, Monday

Time Temperature Precipitation Wind Pressure Humidity
00:00 +13°C° 0 mm 4 mps 756 mmHg 77%
01:00 +13°C° 0 mm 4 mps 756 mmHg 75%
02:00 +13°C° 0 mm 4 mps 757 mmHg 73%
03:00 +13°C° 0 mm 3 mps 757 mmHg 72%
04:00 +13°C° 0 mm 4 mps 757 mmHg 70%
05:00 +14°C° 0 mm 4 mps 757 mmHg 68%
06:00 +14°C° 0 mm 4 mps 758 mmHg 67%
07:00 +15°C° 0 mm 4 mps 758 mmHg 63%
08:00 +17°C° 0 mm 4 mps 758 mmHg 59%
09:00 +18°C° 0 mm 4 mps 758 mmHg 55%
10:00 +19°C° 0 mm 4 mps 759 mmHg 54%
11:00 +19°C° 0 mm 5 mps 759 mmHg 52%
12:00 +20°C° 0 mm 5 mps 759 mmHg 51%
13:00 +20°C° 0 mm 5 mps 759 mmHg 51%
14:00 +20°C° 0 mm 5 mps 759 mmHg 51%
15:00 +20°C° 0 mm 5 mps 759 mmHg 51%
16:00 +20°C° 0 mm 5 mps 759 mmHg 53%
17:00 +19°C° 0 mm 5 mps 759 mmHg 55%
18:00 +19°C° 0 mm 5 mps 759 mmHg 57%
19:00 +17°C° 0 mm 4 mps 760 mmHg 62%
20:00 +16°C° 0 mm 3 mps 760 mmHg 68%
21:00 +13°C° 0 mm 3 mps 760 mmHg 74%
22:00 +14°C° 0 mm 2 mps 760 mmHg 76%
23:00 +13°C° 0 mm 2 mps 760 mmHg 78%

7 July, Tuesday

Time Temperature Precipitation Wind Pressure Humidity
00:00 +12°C° 0 mm 2 mps 760 mmHg 80%
01:00 +12°C° 0 mm 2 mps 760 mmHg 81%
02:00 +12°C° 0 mm 1 mps 760 mmHg 82%
03:00 +12°C° 0 mm 1 mps 760 mmHg 84%
04:00 +13°C° 0 mm 1 mps 760 mmHg 82%
05:00 +13°C° 0 mm 1 mps 760 mmHg 80%
06:00 +14°C° 0 mm 1 mps 760 mmHg 78%
07:00 +16°C° 0 mm 1 mps 761 mmHg 71%
08:00 +18°C° 0 mm 2 mps 761 mmHg 64%
09:00 +19°C° 0 mm 2 mps 761 mmHg 56%
10:00 +20°C° 0 mm 3 mps 761 mmHg 52%
11:00 +21°C° 0 mm 3 mps 761 mmHg 47%
12:00 +22°C° 0 mm 3 mps 761 mmHg 42%
13:00 +22°C° 0 mm 4 mps 760 mmHg 43%
14:00 +22°C° 0 mm 4 mps 760 mmHg 44%
15:00 +22°C° 0 mm 4 mps 760 mmHg 45%
16:00 +22°C° 0 mm 4 mps 761 mmHg 48%
17:00 +21°C° 0 mm 4 mps 761 mmHg 51%
18:00 +20°C° 0 mm 4 mps 761 mmHg 53%
19:00 +19°C° 0 mm 4 mps 761 mmHg 59%
20:00 +17°C° 0 mm 3 mps 761 mmHg 64%
21:00 +16°C° 0 mm 3 mps 762 mmHg 69%
22:00 +14°C° 0 mm 3 mps 762 mmHg 70%
23:00 +13°C° 0 mm 3 mps 762 mmHg 70%

8 July, Wednesday

Time Temperature Precipitation Wind Pressure Humidity
00:00 +13°C° 0 mm 2 mps 762 mmHg 70%
01:00 +13°C° 0 mm 2 mps 762 mmHg 72%
02:00 +12°C° 0 mm 2 mps 761 mmHg 74%
03:00 +12°C° 0 mm 2 mps 761 mmHg 76%
04:00 +12°C° 0 mm 2 mps 761 mmHg 74%
05:00 +13°C° 0 mm 2 mps 761 mmHg 71%
06:00 +14°C° 0 mm 2 mps 761 mmHg 68%
07:00 +16°C° 0 mm 2 mps 761 mmHg 60%
08:00 +17°C° 0 mm 2 mps 761 mmHg 52%
09:00 +19°C° 0 mm 2 mps 761 mmHg 44%
10:00 +21°C° 0 mm 2 mps 761 mmHg 40%
11:00 +23°C° 0 mm 2 mps 761 mmHg 36%
12:00 +24°C° 0 mm 2 mps 761 mmHg 33%
13:00 +25°C° 0 mm 2 mps 760 mmHg 32%
14:00 +25°C° 0 mm 2 mps 760 mmHg 32%
15:00 +26°C° 0 mm 2 mps 760 mmHg 32%
16:00 +25°C° 0 mm 2 mps 760 mmHg 36%
17:00 +25°C° 0 mm 1 mps 759 mmHg 40%
18:00 +25°C° 0 mm 1 mps 759 mmHg 44%
19:00 +23°C° 0 mm 1 mps 759 mmHg 49%
20:00 +21°C° 0 mm 1 mps 760 mmHg 53%
21:00 +19°C° 0 mm 1 mps 760 mmHg 58%
22:00 +19°C° 0 mm 1 mps 760 mmHg 63%
23:00 +18°C° 0 mm 1 mps 760 mmHg 68%
Show more